SL-19 DEB, 23482

Orbit data source: Space-Track

SL-19 DEB, 23482 is space debris in LEO originally from a launch on Mon, 26 Dec 1994 UTC launched from the Tyuratam Missile And Space Complex (TTMTR). Debris objects in space refer to the collection of defunct objects orbiting the Earth. Examples of debris include non-operational satellites, rocket bodies, and fragments generated from explosions, collisions, or faulty payload assembly.

Loading next visibility...
Identifier
23482, 1994-085E
Orbit
LEO
Country
Flag of CISCIS
Related business
Manufacturer
Unknown
Mission
Spacecraft
Bus & Motor
Unknown
Mass
Unknown
Launch date (UTC)
1994-12-26 (31 years ago)
Launch vehicle
Unknown
Launch site
Tyuratam Missile And Space Complex (TTMTR)
Object type
Payload
Rocket body
Debris
Shape & HBR
Unknown
Radar Cross Section
Medium (>0.1 m² and <1 m²)

Expand to show TLE details & history
Last TLE update: 1 day ago

TLE from 1 day ago
0 SL-19 DEB
1 23482U 94085E   25260.22750911  .00002120  00000-0  50237-1 0  9990
2 23482  64.6942 322.2637 0409196 224.1570 169.4844 11.31137010265598
Epoch: 2025-09-17T05:27Z
TLE epoch observation values (Epoch: 2025-09-17T05:27:36.787Z)
Latitude
30.82096°
Longitude
-99.73547°
Altitude
2,345.183 km
Speed
6.626 km/s
True Right ascension
22h 34m 17s
True Declination
30° 41' 51"
Sunlit
Object was in full shadow at epoch
Visualization orbit readout
Latitude
Unknown
Longitude
Unknown
Altitude
Unknown
Speed
Unknown
Apparent Right ascension
Unknown
Apparent Declination
Unknown
Sunlit
N/A
Visualization observer readout
Local Sidereal Time
06:14:17
Azimuth
Unknown
Elevation
Unknown
Doppler factor
Unknown
Orbital elements
Apogee altitude
2,346.503 km
Perigee altitude
1,660.554 km
Semi-major axis
8,381.665 km
Eccentricity
0.04092
Inclination
64.6942°
RAAN
322.2637°
Arg. of periapsis
224.157°
True anomaly
170.29909°
Mean anomaly
169.4844°
Eccentric anomaly
169.89572°
Mean motion
2.82844 °/min
Orbital period
127.28 mins
BSTAR
0.050237
Loading maneuver chart data...
Computing Atmospheric mass density...
Loading historical data...
Loading historical data...
Loading historical data...
Loading historical data...
Loading historical data...
Loading historical data...
Loading historical data...

Documentation

Showing up to 5 results
|